Location: *
(32.8140°S, 174.6161°E)
Time: 05:41:43
(UTC+00:00)

GP-B - Pass Details

Date: 10 December 2019
Orbit: 631 x 635 km, 89.8° (Epoch: 19 January)

Event Time Altitude Azimuth Distance (km) Brightness Sun altitude
Rises 14:17:50 0° 187° (S) 2,962 7.3 -27.0°
Reaches altitude 10° 14:20:10 10° 194° (SSW) 2,046 6.2 -26.7°
Enters shadow 14:23:07 33° 224° (SW) 1,082 4.3 -26.4°
